Weather History for KEYF - April, 2013

Change the Weather History Date:

Saturday, April 20, 2013

  Actual Average (KILM) Record (KILM)
Temperature  
Mean Temperature 56 °F 64 °F  
Max Temperature 67 °F 75 °F 91 °F (1995)
Min Temperature 46 °F 53 °F 30 °F (1983)
Degree Days  
Heating Degree Days 8 3  
Month to date heating degree days 104  
Since 1 July heating degree days 2356  
Cooling Degree Days 0 3  
Month to date cooling degree days 35  
Year to date cooling degree days 56  
Growing Degree Days 6 (Base 50)    
Moisture  
Dew Point 47 °F    
Average Humidity 73    
Maximum Humidity 100    
Minimum Humidity 44    
Precipitation  
Precipitation 0.21 in 0.09 in 1.30 in (1918)
Month to date precipitation 1.87  
Year to date precipitation 13.46  
Snow  
Snow 0.00 in 0.00 in - ()
Month to date snowfall 0.0  
Since 1 July snowfall 1.7  
Snow Depth -    
Sea Level Pressure  
Sea Level Pressure 30.09 in    
Wind  
Wind Speed 5 mph (WNW)    
Max Wind Speed 12 mph    
Max Gust Speed 20 mph    
Visibility 10 miles    
Events Rain    
T = Trace of Precipitation, MM = Missing Value Source: NWS Daily Summary

Daily Weather History Graph

Daily Weather History Graph

Search for Another Location

Airport or City:

Trip Planner

Search our weather history database for the weather conditions in past years. The results will help you decide how hot, cold, wet, or windy it might be!

Date:

Astronomy

Apr. 20, 2013 Rise Set
Actual Time 6:36 AM EDT 7:50 PM EDT
Civil Twilight 6:10 AM EDT 8:16 PM EDT
Nautical Twilight 5:38 AM EDT 8:48 PM EDT
Astronomical Twilight 5:06 AM EDT 9:20 PM EDT
Moon 2:45 PM EDT (4/20) 3:11 AM EDT (4/20)
Length of Visible Light 14h 06m
Length of Day
13h 14m
Waxing Gibbous, 71% of the Moon is Illuminated
Apr 20
Waxing Gibbous
Apr 25
Full
May 2
Last Quarter
May 9
New
May 18
First Quarter

Hourly Weather History & Observations

Time (EDT) Temp. Dew Point Humidity Pressure Visibility Wind Dir Wind Speed Gust Speed Precip Events Conditions
12:15 AM 66.7 °F 66.7 °F 100% 29.87 in 10.0 mi South 5.8 mph - N/A Rain Light Rain
12:35 AM 66.7 °F 66.7 °F 100% 29.90 in 10.0 mi SSW 5.8 mph - 0.01 in Rain Rain
12:55 AM 66.9 °F 66.9 °F 100% 29.90 in 10.0 mi South 5.8 mph - 0.02 in   Light Drizzle
1:15 AM 67.1 °F 67.1 °F 100% 29.90 in 10.0 mi SSW 6.9 mph - N/A   Overcast
1:35 AM 67.1 °F 67.1 °F 100% 29.91 in 10.0 mi SSW 9.2 mph 17.3 mph 0.01 in Rain Rain
1:55 AM 67.1 °F 67.1 °F 100% 29.89 in 7.0 mi SSW 5.8 mph - 0.03 in Rain Light Rain
2:15 AM 66.7 °F 66.4 °F 99% 29.90 in 10.0 mi SW 9.2 mph - 0.01 in Rain Light Rain
2:55 AM 62.8 °F 61.0 °F 94% 29.91 in 7.0 mi West 11.5 mph 19.6 mph 0.06 in Rain Rain
3:15 AM 60.6 °F 58.3 °F 92% 29.90 in 7.0 mi West 10.4 mph 19.6 mph 0.03 in Rain Rain
3:35 AM 58.3 °F 55.9 °F 92% 29.92 in 10.0 mi West 10.4 mph 19.6 mph 0.05 in Rain Rain
3:55 AM 55.8 °F 52.7 °F 89% 29.94 in 10.0 mi West 9.2 mph 17.3 mph 0.07 in Rain Light Rain
4:15 AM 55.2 °F 52.5 °F 91% 29.93 in 10.0 mi West 4.6 mph - 0.01 in Rain Light Rain
4:35 AM 54.5 °F 52.7 °F 94% 29.94 in 10.0 mi WSW 4.6 mph - 0.03 in Rain Light Rain
4:55 AM 54.3 °F 52.7 °F 94% 29.94 in 10.0 mi WSW 5.8 mph - 0.03 in   Light Drizzle
5:35 AM 54.1 °F 52.9 °F 95% 29.95 in 10.0 mi West 4.6 mph - N/A   Mostly Cloudy
5:55 AM 54.3 °F 53.2 °F 96% 29.96 in 10.0 mi West 3.5 mph - N/A   Mostly Cloudy
6:15 AM 54.5 °F 53.6 °F 97% 29.97 in 10.0 mi West 4.6 mph - N/A   Scattered Clouds
6:35 AM 54.5 °F 53.8 °F 97% 29.98 in 10.0 mi WNW 3.5 mph - N/A   Mostly Cloudy
6:55 AM 54.7 °F 54.1 °F 98% 30.00 in 10.0 mi WNW 5.8 mph - N/A Rain Light Rain
7:15 AM 54.9 °F 54.5 °F 99% 30.00 in 10.0 mi NW 6.9 mph - N/A   Scattered Clouds
7:35 AM 54.0 °F 51.4 °F 91% 30.04 in 10.0 mi NW 11.5 mph 16.1 mph N/A   Scattered Clouds
7:55 AM 53.1 °F 47.1 °F 80% 30.05 in 10.0 mi NW 9.2 mph 17.3 mph N/A   Mostly Cloudy
8:15 AM 52.2 °F 46.6 °F 81% 30.06 in 10.0 mi NNW 4.6 mph - N/A   Scattered Clouds
8:35 AM 52.2 °F 47.3 °F 83% 30.07 in 10.0 mi Calm Calm - N/A   Mostly Cloudy
8:55 AM 52.2 °F 47.1 °F 83% 30.08 in 10.0 mi Calm Calm - N/A   Overcast
9:15 AM 52.5 °F 47.1 °F 82% 30.09 in 10.0 mi Calm Calm - N/A   Overcast
9:35 AM 53.1 °F 45.9 °F 77% 30.09 in 10.0 mi North 3.5 mph - N/A   Overcast
9:55 AM 53.1 °F 45.0 °F 74% 30.09 in 10.0 mi North 4.6 mph - N/A   Mostly Cloudy
10:15 AM 53.8 °F 42.1 °F 65% 30.11 in 10.0 mi NNW 5.8 mph - N/A   Scattered Clouds
10:35 AM 53.6 °F 39.7 °F 59% 30.11 in 10.0 mi NNW 6.9 mph - N/A   Clear
10:55 AM 54.1 °F 39.4 °F 57% 30.13 in 10.0 mi NNW 5.8 mph - N/A   Clear
11:15 AM 55.6 °F 39.2 °F 54% 30.13 in 10.0 mi North 4.6 mph - N/A   Clear
11:35 AM 55.6 °F 39.2 °F 54% 30.14 in 10.0 mi North 3.5 mph - N/A   Clear
11:55 AM 56.3 °F 39.2 °F 53% 30.14 in 10.0 mi NNE 3.5 mph - N/A   Clear
12:15 PM 56.3 °F 37.9 °F 50% 30.15 in 10.0 mi NW 5.8 mph - N/A   Clear
12:35 PM 56.7 °F 38.8 °F 51% 30.14 in 10.0 mi North 4.6 mph - N/A   Clear
12:55 PM 57.4 °F 38.7 °F 50% 30.15 in 10.0 mi Calm Calm - N/A   Clear
1:15 PM 57.6 °F 36.9 °F 46% 30.15 in 10.0 mi North 6.9 mph - N/A   Clear
1:35 PM 58.1 °F 36.7 °F 45% 30.14 in 10.0 mi North 3.5 mph - N/A   Clear
1:55 PM 58.1 °F 38.8 °F 49% 30.14 in 10.0 mi Calm Calm - N/A   Clear
2:15 PM 57.7 °F 37.0 °F 46% 30.14 in 10.0 mi Calm Calm - N/A   Clear
2:35 PM 58.6 °F 37.4 °F 45% 30.15 in 10.0 mi North 4.6 mph - N/A   Clear
2:55 PM 58.3 °F 37.9 °F 47% 30.15 in 10.0 mi North 3.5 mph - N/A   Clear
3:15 PM 58.3 °F 36.3 °F 44% 30.14 in 10.0 mi NW 4.6 mph - N/A   Clear
3:35 PM 57.7 °F 38.1 °F 48% 30.14 in 10.0 mi Calm Calm - N/A   Clear
3:55 PM 58.3 °F 38.8 °F 48% 30.14 in 10.0 mi Calm Calm - N/A   Clear
4:15 PM 59.0 °F 37.6 °F 45% 30.13 in 10.0 mi NNW 4.6 mph - N/A   Clear
4:35 PM 58.3 °F 37.8 °F 46% 30.14 in 10.0 mi NE 3.5 mph - N/A   Clear
4:55 PM 58.5 °F 37.6 °F 46% 30.14 in 10.0 mi Calm Calm - N/A   Clear
5:15 PM 58.5 °F 38.1 °F 47% 30.14 in 10.0 mi Calm Calm - N/A   Clear
5:35 PM 58.3 °F 38.5 °F 48% 30.15 in 10.0 mi Calm Calm - N/A   Clear
5:55 PM 57.9 °F 39.0 °F 49% 30.14 in 10.0 mi Calm Calm - N/A   Clear
6:15 PM 57.4 °F 40.6 °F 54% 30.16 in 10.0 mi Calm Calm - N/A   Clear
6:35 PM 56.3 °F 41.5 °F 58% 30.17 in 10.0 mi Calm Calm - N/A   Clear
6:55 PM 55.8 °F 43.7 °F 64% 30.16 in 10.0 mi Calm Calm - N/A   Clear
7:15 PM 56.1 °F 44.2 °F 64% 30.17 in 10.0 mi Calm Calm - N/A   Clear
7:35 PM 56.3 °F 42.6 °F 60% 30.18 in 10.0 mi Calm Calm - N/A   Clear
7:55 PM 55.6 °F 43.2 °F 63% 30.19 in 10.0 mi Calm Calm - N/A   Clear
8:15 PM 54.1 °F 43.7 °F 68% 30.19 in 10.0 mi Calm Calm - N/A   Clear
8:35 PM 52.3 °F 44.6 °F 75% 30.20 in 10.0 mi Calm Calm - N/A   Clear
8:55 PM 51.6 °F 45.5 °F 80% 30.22 in 10.0 mi Calm Calm - N/A   Clear
9:15 PM 50.4 °F 44.8 °F 81% 30.23 in 10.0 mi Calm Calm - N/A   Clear
9:35 PM 49.3 °F 44.6 °F 84% 30.24 in 10.0 mi Calm Calm - N/A   Clear
9:55 PM 48.6 °F 44.1 °F 84% 30.25 in 10.0 mi Calm Calm - N/A   Clear
10:15 PM 48.0 °F 43.2 °F 83% 30.26 in 10.0 mi Calm Calm - N/A   Clear
10:35 PM 46.9 °F 43.2 °F 87% 30.26 in 10.0 mi Calm Calm - N/A   Clear
10:55 PM 46.9 °F 43.7 °F 88% 30.26 in 10.0 mi Calm Calm - N/A   Clear
11:15 PM 46.9 °F 43.2 °F 87% 30.26 in 10.0 mi Calm Calm - N/A   Clear
11:35 PM 46.9 °F 44.1 °F 90% 30.26 in 10.0 mi Calm Calm - N/A   Clear
11:55 PM 46.0 °F 44.2 °F 93% 30.26 in 10.0 mi Calm Calm - N/A   Clear